Probability
90 100 100 100 100 100 100 100 100 100 100 100 100 100 100 100 100 100 100 100 100 100 100 100 100 100 100 100 100 100 100 100 100 100 100 100 100 100 100 100 100 100 100
90 100 100 100 100 100 100 100 100 100 100 100 100 100 100 100 100 100 100 100 100 100 100 100 100 100 100 100 100 100 100 100 100 100 100 100 100 100 100 100 97 100 100
97 100 100 100 100 100 100 100 100 100 100 100 100 100 100 100 100 100 100 100 100 100 100 100 100 100 100 100 100 100 100 100 100 100 100 94 100 100 100 100 100 100 100
94 100 100 100 100 100 100 100 100 100 100 100 100 100 100 100 100 100 100 100 100 100 100 100 100 100 100 100 100 100 100 100 100 100 48 77 100 100 100 100 100 100 97
94 100 100 100 100 100 100 100 100 100 100 100 100 100 100 100 100 100 100 100 100 100 100 100 100 97 97 100 97 97 97 97 97 94 42 42 90 100 100 100 100 94 97
97 100 100 100 100 100 100 100 100 100 100 100 100 100 100 100 100 100 100 100 100 97 100 100 100 97 94 97 97 100 100 100 97 71 42 45 90 100 100 100 100 100 97
100 100 100 100 100 100 100 100 100 100 100 100 100 100 100 100 100 100 100 100 100 100 100 100 100 97 97 94 100 97 97 94 68 55 45 42 87 100 100 100 97 94 90
97 100 100 100 100 100 100 100 100 100 100 100 100 100 100 100 100 100 100 100 100 100 100 100 100 100 97 90 90 94 87 87 61 65 39 39 94 100 100 100 97 94 94
97 97 94 97 100 100 100 100 100 100 100 100 100 100 100 100 100 100 100 100 100 100 100 100 100 97 94 94 81 77 77 94 16 13 45 32 94 97 100 100 97 97 94
90 94 94 90 90 97 97 100 100 100 100 100 100 100 100 100 100 100 100 100 100 100 100 100 100 94 87 81 77 77 81 65 10 10 16 39 90 97 100 100 97 97 97
87 87 87 87 87 90 94 97 97 97 100 100 100 100 100 97 97 97 97 97 97 97 94 94 94 90 84 74 77 81 71 13 0 3 6 68 97 100 100 100 100 97 94
84 84 84 87 87 90 90 87 90 94 94 94 94 97 94 94 87 90 97 97 97 94 94 87 84 84 81 45 48 74 29 10 3 3 16 90 97 97 97 100 97 94 90
71 71 71 77 84 84 84 87 87 84 84 84 84 84 81 77 81 81 81 90 87 84 77 74 74 68 52 35 16 10 13 3 0 0 16 94 94 94 87 87 84 87 81
58 45 58 68 68 74 77 81 81 77 77 74 71 77 71 45 42 39 52 65 58 45 45 35 35 32 29 10 3 0 0 0 0 0 19 84 84 81 77 81 81 77 77
42 39 42 45 45 52 55 71 74 65 68 65 65 58 42 32 26 23 26 16 29 23 16 16 16 19 6 3 3 0 0 0 0 3 19 71 71 74 71 68 71 65 68
32 26 29 35 35 45 45 48 35 45 35 32 32 39 32 26 19 16 13 3 3 3 6 6 10 10 3 3 3 0 0 0 0 0 13 35 45 55 55 55 58 55 52
26 32 32 32 29 29 32 26 26 19 19 13 23 23 16 10 10 10 10 3 3 3 3 3 3 3 3 3 0 0 0 0 0 0 0 6 13 32 45 39 35 35 32
23 26 23 32 26 23 13 13 16 13 10 3 10 13 13 10 10 6 6 6 3 3 3 0 0 0 0 0 0 0 0 0 3 3 0 3 0 0 13 19 19 16 23
29 19 19 19 16 19 10 10 13 13 13 6 3 10 10 10 6 6 6 6 6 3 3 3 0 0 0 0 0 0 0 0 0 3 3 0 0 0 0 3 3 6 6
16 10 6 16 10 10 6 6 6 6 6 6 3 10 10 10 6 6 6 3 3 3 0 0 0 0 0 0 3 0 0 0 0 0 0 0 0 0 0 0 0 0 3
19 16 10 6 6 3 0 0 6 6 6 6 0 3 3 6 6 6 6 3 3 0 0 0 0 0 0 0 0 0 0 0 0 0 0 0 0 0 0 0 0 0 0
23 13 13 6 6 0 0 0 3 6 6 3 0 3 3 3 6 6 3 3 3 3 0 0 0 0 0 0 0 0 0 0 0 0 0 0 0 0 0 0 0 0 0
13 10 13 6 6 6 3 3 3 6 6 3 3 3 3 3 3 3 3 3 3 3 3 0 0 0 0 0 0 0 0 0 0 0 0 0 0 0 0 0 0 0 0
10 10 3 3 3 6 6 3 6 6 6 3 3 3 3 3 0 0 0 0 3 0 0 0 0 0 0 0 0 0 0 0 0 0 0 0 0 0 0 0 0 0 0
6 3 0 3 3 3 6 3 3 3 3 3 3 3 3 0 0 0 0 0 0 0 0 0 0 0 0 0 0 0 0 0 0 0 0 0 0 0 0 0 0 0 0
3 3 0 3 3 3 3 0 3 3 3 0 0 0 0 0 0 0 0 0 0 0 0 0 0 0 0 0 0 0 0 0 0 0 0 0 0 0 0 0 0 0 0
Height
5896 5896 5897 5898 5898 5899 5900 5901 5902 5902 5903 5904 5904 5905 5905 5905 5906 5906 5906 5906 5906 5905 5905 5904 5903 5902 5901 5900 5899 5898 5898 5897 5897 5896 5895 5895 5894 5893 5892 5891 5891 5890 5889
5894 5895 5896 5897 5897 5898 5899 5900 5901 5902 5902 5903 5903 5904 5904 5905 5905 5905 5905 5905 5905 5904 5904 5903 5902 5901 5900 5899 5899 5898 5898 5897 5897 5896 5895 5895 5894 5893 5892 5891 5891 5890 5889
5893 5893 5894 5895 5896 5897 5898 5899 5900 5900 5901 5902 5902 5903 5903 5903 5903 5903 5904 5904 5903 5903 5903 5902 5901 5900 5900 5899 5898 5898 5897 5897 5896 5896 5895 5894 5894 5893 5892 5891 5891 5890 5890
5891 5892 5893 5893 5894 5895 5896 5897 5898 5898 5899 5900 5901 5901 5901 5902 5902 5902 5902 5902 5902 5902 5901 5900 5900 5899 5899 5898 5897 5897 5897 5896 5895 5895 5894 5894 5893 5893 5892 5892 5891 5890 5890
5889 5889 5890 5891 5892 5893 5894 5895 5896 5896 5897 5898 5898 5899 5900 5900 5900 5901 5901 5901 5901 5900 5900 5899 5898 5898 5897 5897 5896 5896 5895 5895 5894 5894 5893 5893 5893 5893 5892 5892 5891 5891 5890
5886 5887 5888 5888 5889 5890 5891 5892 5893 5894 5895 5895 5896 5897 5897 5898 5898 5899 5899 5899 5899 5898 5898 5897 5897 5896 5896 5895 5895 5895 5894 5894 5893 5893 5892 5892 5892 5892 5892 5892 5891 5890 5890
5883 5884 5884 5885 5886 5887 5888 5889 5890 5891 5892 5893 5893 5894 5895 5895 5896 5896 5896 5896 5896 5896 5896 5895 5895 5894 5894 5894 5894 5893 5893 5893 5892 5892 5892 5892 5892 5892 5891 5891 5891 5890 5890
5880 5880 5880 5881 5882 5883 5884 5885 5886 5887 5888 5889 5890 5891 5892 5892 5893 5893 5893 5894 5894 5894 5893 5893 5892 5892 5892 5892 5892 5892 5892 5891 5891 5891 5891 5891 5891 5891 5891 5890 5890 5889 5889
5877 5877 5877 5878 5878 5879 5881 5882 5883 5883 5885 5886 5887 5887 5888 5888 5889 5889 5889 5890 5890 5890 5890 5890 5890 5890 5890 5890 5890 5890 5890 5889 5889 5889 5889 5890 5889 5889 5889 5889 5889 5888 5888
5873 5874 5874 5874 5875 5876 5877 5878 5879 5880 5881 5882 5882 5883 5884 5884 5885 5885 5885 5886 5886 5887 5887 5887 5887 5887 5887 5887 5887 5887 5887 5887 5887 5887 5888 5888 5888 5888 5888 5888 5887 5887 5886
5869 5869 5870 5870 5871 5872 5873 5874 5875 5876 5876 5877 5878 5878 5879 5880 5880 5880 5881 5882 5882 5882 5882 5883 5883 5883 5883 5883 5884 5884 5884 5885 5885 5885 5886 5886 5886 5886 5886 5886 5885 5885 5885
5865 5865 5865 5866 5866 5867 5868 5869 5870 5871 5871 5872 5873 5874 5874 5875 5875 5876 5876 5877 5877 5878 5878 5878 5878 5879 5879 5879 5880 5881 5881 5882 5883 5883 5883 5884 5884 5884 5884 5884 5884 5883 5883
5861 5860 5861 5861 5862 5863 5863 5864 5866 5867 5867 5867 5868 5868 5869 5870 5870 5871 5871 5872 5872 5873 5873 5873 5874 5874 5875 5875 5876 5877 5878 5879 5879 5880 5880 5881 5881 5881 5881 5881 5881 5881 5880
5856 5855 5855 5856 5857 5858 5858 5859 5860 5861 5862 5862 5863 5863 5864 5865 5865 5866 5866 5866 5867 5867 5868 5868 5869 5869 5870 5871 5872 5873 5874 5875 5876 5876 5876 5877 5878 5878 5878 5878 5878 5878 5878
5851 5851 5851 5851 5852 5853 5853 5853 5855 5855 5856 5856 5857 5858 5858 5859 5860 5860 5860 5860 5861 5861 5861 5862 5863 5864 5865 5866 5867 5868 5869 5870 5872 5872 5873 5873 5874 5874 5874 5874 5874 5874 5874
5845 5845 5844 5844 5846 5847 5847 5848 5849 5849 5849 5850 5851 5852 5853 5853 5853 5854 5854 5855 5855 5855 5855 5856 5857 5858 5860 5861 5862 5863 5865 5866 5867 5868 5868 5869 5869 5870 5870 5870 5870 5870 5870
5838 5839 5839 5839 5840 5840 5841 5842 5842 5842 5843 5844 5845 5846 5846 5847 5847 5848 5848 5848 5849 5849 5850 5850 5851 5853 5854 5856 5857 5858 5859 5861 5862 5863 5864 5864 5865 5865 5865 5866 5866 5865 5865
5832 5833 5833 5834 5834 5835 5836 5837 5836 5837 5836 5836 5838 5838 5839 5840 5841 5841 5842 5842 5842 5843 5844 5845 5846 5847 5849 5850 5851 5852 5854 5856 5857 5858 5859 5860 5860 5860 5860 5860 5860 5860 5860
5827 5827 5828 5829 5829 5829 5829 5830 5830 5830 5830 5830 5831 5832 5833 5834 5835 5835 5835 5836 5836 5837 5839 5840 5841 5842 5843 5845 5846 5847 5849 5850 5852 5853 5854 5854 5855 5855 5855 5855 5855 5855 5854
5821 5821 5822 5822 5823 5823 5824 5825 5824 5825 5825 5824 5825 5826 5827 5828 5828 5828 5829 5830 5830 5832 5833 5834 5835 5836 5838 5840 5841 5842 5843 5845 5846 5847 5848 5848 5849 5849 5849 5849 5849 5849 5848
5815 5815 5815 5816 5817 5818 5819 5819 5819 5819 5819 5820 5820 5821 5822 5822 5823 5823 5824 5824 5824 5826 5827 5828 5830 5830 5832 5834 5835 5836 5837 5838 5840 5841 5842 5842 5843 5843 5843 5843 5843 5842 5841
5809 5809 5809 5810 5810 5811 5812 5813 5814 5814 5814 5814 5815 5816 5817 5818 5818 5818 5818 5818 5819 5820 5821 5822 5823 5825 5826 5827 5829 5830 5831 5832 5833 5835 5836 5836 5836 5836 5836 5836 5836 5835 5834
5801 5801 5802 5803 5804 5805 5806 5807 5808 5808 5808 5808 5810 5811 5812 5812 5813 5813 5812 5813 5813 5815 5816 5817 5818 5819 5820 5821 5823 5824 5825 5826 5826 5827 5828 5829 5829 5829 5829 5829 5828 5828 5827
5794 5794 5794 5796 5797 5798 5799 5800 5802 5802 5803 5803 5804 5806 5807 5807 5807 5807 5807 5807 5808 5809 5811 5812 5812 5813 5814 5815 5816 5818 5819 5820 5820 5820 5821 5821 5821 5822 5821 5821 5820 5819 5818
5788 5788 5789 5789 5790 5791 5792 5794 5795 5796 5796 5797 5799 5800 5801 5802 5802 5803 5803 5803 5803 5803 5805 5806 5807 5808 5808 5809 5810 5811 5812 5813 5813 5814 5813 5814 5814 5813 5813 5812 5812 5810 5809
5781 5781 5781 5782 5783 5784 5786 5787 5788 5789 5790 5791 5793 5794 5795 5796 5796 5797 5797 5797 5797 5798 5799 5800 5801 5802 5802 5803 5804 5805 5805 5805 5806 5806 5806 5806 5805 5805 5804 5803 5802 5801 5800
Wind_Speed
6 4 4 6 8 9 10 11 11 11 11 11 11 10 10 10 10 10 10 9 9 9 9 8 8 8 7 6 5 4 3 1 1 0 0 1 1 1 2 3 3 3 3
7 6 6 7 8 9 10 11 12 13 13 13 12 12 11 11 11 11 11 11 11 11 10 9 9 9 8 7 6 4 3 2 1 0 0 1 1 2 3 3 3 4 4
8 8 8 8 9 10 11 13 14 14 15 15 14 13 13 13 13 12 12 12 12 12 12 11 10 10 9 8 6 5 4 2 2 1 0 1 1 2 3 3 3 3 4
10 10 10 10 10 11 12 14 15 15 16 16 15 15 14 14 13 13 13 13 13 13 13 12 12 11 10 9 7 6 4 4 3 2 1 1 1 2 2 2 3 3 3
11 11 11 11 12 13 13 15 16 16 16 16 16 16 15 15 14 15 15 15 14 14 14 14 13 12 11 10 8 7 6 5 4 3 2 1 1 2 2 2 2 2 2
12 12 12 12 13 14 15 16 17 17 18 18 18 17 17 16 16 16 16 16 15 15 15 15 14 13 12 11 9 8 7 6 5 5 3 3 3 2 2 2 2 2 2
13 13 13 14 14 15 16 17 18 18 19 19 19 19 19 18 18 18 17 17 16 16 16 15 15 14 13 12 11 9 8 7 7 6 5 4 4 4 3 3 2 3 3
14 14 15 15 16 17 17 18 19 20 20 21 21 20 20 19 19 19 18 18 17 17 17 16 15 14 14 13 12 11 10 9 8 8 6 6 5 5 5 4 4 3 3
16 16 16 16 16 18 19 19 20 20 21 22 22 22 21 21 20 20 20 19 18 18 17 17 16 15 14 14 13 12 11 11 10 9 8 7 7 6 6 5 5 4 4
18 18 17 17 18 18 19 20 20 20 21 22 22 22 22 22 22 21 20 20 19 19 18 18 17 17 16 15 14 13 12 12 11 11 10 9 8 8 8 7 6 6 6
20 20 20 20 19 19 19 20 21 21 21 22 22 23 23 23 23 22 21 20 20 20 19 19 19 18 17 16 16 15 14 14 13 12 12 11 10 10 9 9 8 8 8
22 22 23 22 21 20 20 20 21 21 21 22 23 24 24 24 23 23 21 21 21 21 20 20 20 19 18 18 17 16 15 15 14 14 13 13 12 12 11 11 11 10 10
23 24 25 24 23 21 21 21 21 22 22 22 23 24 24 25 24 24 23 23 23 22 22 22 21 21 20 19 18 18 17 16 16 15 15 15 14 14 14 13 13 13 12
24 25 27 25 23 24 23 22 23 23 23 25 25 25 25 25 25 25 24 25 25 25 24 23 22 22 21 21 20 19 18 18 17 17 17 16 16 16 16 16 15 15 15
25 26 26 25 25 25 25 24 24 25 25 26 26 25 25 25 25 26 26 27 26 26 26 25 24 22 22 22 21 21 20 20 18 18 19 18 18 17 17 18 17 17 17
27 28 27 27 26 26 26 27 27 27 27 26 26 26 26 25 24 25 26 27 27 27 26 26 25 24 22 23 22 22 22 21 20 20 20 20 20 19 19 19 20 20 20
28 28 28 27 27 26 26 27 27 26 27 27 27 28 26 26 25 25 26 26 26 27 27 26 26 26 24 23 24 23 22 22 22 21 21 21 21 21 21 21 21 21 22
31 29 28 28 27 26 26 26 26 26 26 26 26 26 25 24 25 24 24 24 25 25 26 26 24 25 25 24 23 24 23 23 22 22 22 22 23 23 23 24 24 24 24
31 30 30 30 29 27 26 25 24 25 25 25 24 23 23 23 23 23 23 23 24 25 25 25 24 24 24 23 22 23 24 24 24 24 24 24 24 24 24 25 25 25 26
30 30 31 31 29 28 28 28 26 26 24 24 23 20 20 20 20 21 21 23 23 24 24 25 25 25 24 24 24 24 25 25 25 25 25 25 25 25 26 26 27 28 28
30 30 31 31 29 29 29 30 30 28 26 25 22 20 19 19 19 19 20 21 23 24 24 24 24 24 24 25 26 26 26 27 27 27 27 27 27 28 28 28 29 29 30
30 30 31 31 31 31 31 31 30 30 28 25 23 20 20 19 20 20 20 21 23 23 23 24 24 25 25 25 26 27 28 29 29 29 29 29 30 30 30 31 31 31 31
30 31 31 31 31 32 32 31 31 29 28 27 25 22 21 21 21 20 19 19 20 22 22 22 22 25 26 26 26 28 28 29 29 29 30 31 32 32 32 32 32 33 34
30 30 30 31 31 32 32 32 31 29 28 26 25 24 22 21 20 20 19 18 20 21 21 22 22 23 25 26 27 28 28 29 30 30 31 32 33 33 33 34 34 35 36
30 31 31 31 31 31 31 31 31 30 29 28 26 25 25 24 23 22 21 19 19 21 21 22 23 24 24 26 27 28 28 29 30 31 31 33 34 34 35 35 36 37 37
28 29 30 30 31 30 31 31 31 30 29 27 26 26 26 25 24 23 22 22 21 22 22 22 23 24 25 26 27 28 29 29 30 31 32 33 34 35 35 36 36 38 38
Wind_Direction
291 276 257 241 233 229 227 232 235 235 239 243 248 255 264 270 273 276 283 289 292 295 296 297 297 295 293 292 286 283 278 262 263 295 29 40 22 40 50 46 44 42 38
288 276 268 254 240 236 236 239 240 240 243 246 250 255 262 267 272 276 284 288 291 293 295 296 297 295 293 291 282 277 274 256 240 241 43 34 23 36 45 43 37 33 28
285 275 264 256 248 244 243 244 244 244 246 249 252 255 260 266 270 276 282 285 288 292 294 295 296 295 294 290 280 274 268 255 247 257 315 32 21 20 27 31 26 25 26
276 270 262 257 253 251 249 248 247 247 248 250 252 255 259 264 268 274 280 284 286 290 292 293 294 293 291 289 281 271 263 256 256 268 300 342 1 4 7 15 15 17 19
270 265 260 258 255 253 252 250 248 248 249 250 252 255 259 262 266 272 277 281 285 287 290 291 292 290 288 286 281 270 263 260 263 269 269 286 310 328 339 346 353 1 3
270 264 261 259 258 255 253 251 249 249 251 251 251 255 258 261 265 269 273 278 281 284 287 287 288 287 285 283 278 269 264 263 266 268 267 274 284 293 302 306 314 329 337
269 265 262 260 257 255 255 253 250 249 250 251 252 254 257 259 264 267 270 273 276 279 281 283 283 283 282 280 277 269 262 262 262 262 264 267 272 277 280 279 282 304 317
269 264 262 260 257 255 253 252 251 251 251 251 252 253 255 258 261 264 267 270 273 275 277 278 279 279 279 276 274 269 262 259 256 257 256 256 260 266 272 271 275 290 304
270 265 262 260 257 252 249 249 251 252 254 253 252 253 255 257 260 262 265 267 270 271 273 275 276 276 276 272 271 268 262 259 256 255 255 254 258 258 262 266 273 282 292
268 263 260 259 256 253 249 248 250 253 255 254 252 253 256 257 259 261 263 265 267 269 270 271 271 271 271 269 267 266 261 260 257 254 255 257 258 259 263 267 273 278 284
263 261 256 256 254 249 250 249 249 252 255 256 254 254 255 255 257 258 260 264 266 267 267 267 267 266 266 265 264 264 260 258 256 254 254 255 256 258 263 267 272 277 282
259 259 255 251 250 248 248 249 250 251 254 255 254 254 254 255 256 257 259 263 265 265 265 265 265 263 262 263 262 261 259 256 256 255 254 255 256 257 261 267 272 276 280
259 259 253 248 247 247 248 249 250 252 252 252 254 255 256 256 256 257 259 262 263 264 263 263 262 262 260 259 260 259 257 256 254 255 255 253 256 259 262 266 272 277 279
256 260 255 249 248 248 247 250 251 253 255 253 252 255 256 258 260 260 261 262 262 262 262 261 261 261 258 256 257 257 255 253 252 253 255 256 257 259 262 266 270 273 276
257 257 254 248 246 247 248 248 248 249 253 256 257 256 257 259 261 262 262 262 261 259 258 259 258 258 256 253 254 255 251 251 250 252 254 256 257 259 261 264 269 272 274
260 258 259 256 252 252 250 249 248 250 250 254 256 258 258 257 260 261 262 262 261 259 257 256 257 258 255 253 252 253 250 249 250 252 255 257 258 261 263 266 269 272 274
262 261 259 257 255 254 252 251 250 253 253 254 256 257 260 259 260 263 263 262 261 259 257 257 257 258 255 253 252 252 253 252 252 254 254 256 259 262 265 268 270 272 275
267 265 259 261 261 259 256 256 254 256 256 254 255 257 259 257 256 258 261 260 261 258 256 255 256 255 253 254 252 252 252 252 252 252 254 256 260 263 267 268 270 273 277
265 265 262 262 263 264 263 261 262 257 258 257 254 252 259 263 256 256 257 258 255 254 253 252 253 251 252 250 247 249 251 250 251 252 257 259 259 261 265 268 270 274 276
264 265 264 262 261 263 265 266 266 261 260 259 256 259 261 261 259 257 257 256 252 252 253 255 254 250 249 247 248 250 251 250 249 252 255 257 259 263 267 269 272 275 277
264 265 263 262 261 263 265 266 267 261 262 262 260 263 265 264 265 265 262 255 253 253 255 257 253 248 245 246 247 250 250 250 250 253 256 259 261 263 267 270 272 275 278
264 263 264 263 263 264 266 267 268 269 267 266 271 274 271 266 269 269 263 255 252 253 254 255 252 247 247 246 247 250 250 250 253 255 257 260 262 264 266 270 273 275 277
265 264 264 264 263 264 265 265 267 267 268 270 273 277 274 269 270 268 261 256 255 255 254 253 249 249 248 246 246 248 251 252 255 257 260 262 264 265 267 271 272 275 277
266 265 266 267 264 263 263 264 265 266 267 268 270 272 274 274 273 270 267 266 262 255 251 250 250 249 247 248 249 253 255 256 257 258 262 264 266 268 271 272 274 276 278
267 267 267 268 266 265 264 264 265 264 266 266 268 269 272 275 277 276 273 272 264 256 252 252 254 252 250 252 254 257 258 259 260 261 264 266 267 271 274 275 275 277 278
268 268 268 267 266 266 265 264 264 263 264 265 266 267 269 271 272 273 273 272 267 261 258 257 257 254 253 256 258 259 259 263 264 264 266 267 269 271 274 276 277 278 278